Logan, UT

9:34 AM MST on December 08, 2019 (GMT -0700)
Logan-Cache

Weather History for KLGU - October, 2019

Change the Weather History Date:

Monday, October 7, 2019

  Actual Average Record
Temperature  
Mean Temperature 45 °F -  
Max Temperature 64 °F 67 °F 83 °F (1975)
Min Temperature 27 °F 35 °F 21 °F (2012)
Degree Days  
Heating Degree Days 20    
Moisture  
Dew Point 28 °F    
Average Humidity 61    
Maximum Humidity 85    
Minimum Humidity 23    
Precipitation  
Precipitation 0.00 in - - ()
Sea Level Pressure  
Sea Level Pressure 30.22 in    
Wind  
Wind Speed 1 mph ()    
Max Wind Speed 7 mph    
Max Gust Speed -    
Visibility 10.0 miles    
Events      
Averages and records for this station are not official NWS values.
T = Trace of Precipitation, MM = Missing Value Source: Averaged Metar Reports

Daily Weather History Graph

Daily Weather History Graph

Search for Another Location

Airport or City:

Astronomy

Oct. 07, 2019 Rise Set
Actual Time 7:30 AM MDT 6:59 PM MDT
Civil Twilight 7:02 AM MDT 7:26 PM MDT
Nautical Twilight 6:30 AM MDT 7:59 PM MDT
Astronomical Twilight 5:58 AM MDT 8:31 PM MDT
Moon 4:29 PM MDT (10/7) 1:20 AM MDT (10/7)
Length of Visible Light 12h 24m
Length of Day
11h 28m
Waxing Gibbous, 69% of the Moon is Illuminated
Oct 7
Waxing Gibbous
Oct 13
Full
Oct 21
Last Quarter
Oct 27
New
Nov 4
First Quarter

Hourly Weather History & Observations

Time (MDT) Temp. Windchill Dew Point Humidity Pressure Visibility Wind Dir Wind Speed Gust Speed Precip Events Conditions
12:51 AM 33.1 °F - 27.0 °F 78% 30.35 in 10.0 mi Calm Calm - N/A   Clear
1:51 AM 30.9 °F - 26.1 °F 82% 30.35 in 10.0 mi Calm Calm - N/A   Clear
2:51 AM 32.0 °F - 27.0 °F 82% 30.33 in 10.0 mi Calm Calm - N/A   Clear
3:51 AM 28.9 °F - 24.1 °F 82% 30.33 in 10.0 mi Calm Calm - N/A   Clear
4:51 AM 28.9 °F - 24.1 °F 82% 30.32 in 10.0 mi Calm Calm - N/A   Clear
5:51 AM 28.9 °F - 24.1 °F 82% 30.31 in 10.0 mi Calm Calm - N/A   Clear
6:51 AM 27.0 °F - 23.0 °F 85% 30.32 in 10.0 mi Calm Calm - N/A   Clear
7:51 AM 27.0 °F - 23.0 °F 85% 30.35 in 10.0 mi Calm Calm - N/A   Clear
8:51 AM 33.1 °F - 28.0 °F 82% 30.32 in 10.0 mi Calm Calm - N/A   Clear
9:51 AM 39.0 °F - 30.0 °F 70% 30.30 in 10.0 mi Calm Calm - N/A   Clear
10:51 AM 42.1 °F 40.2 °F 30.0 °F 62% 30.30 in 10.0 mi WNW 3.5 mph - N/A   Clear
11:51 AM 48.9 °F - 28.9 °F 46% 30.26 in 10.0 mi North 3.5 mph - N/A   Clear
12:51 PM 53.1 °F - 27.0 °F 37% 30.24 in 10.0 mi Variable 3.5 mph - N/A   Clear
1:51 PM 57.0 °F - 30.0 °F 36% 30.20 in 10.0 mi NW 4.6 mph - N/A   Clear
2:51 PM 61.0 °F - 27.0 °F 27% 30.14 in 10.0 mi Calm Calm - N/A   Clear
3:51 PM 62.1 °F - 24.1 °F 23% 30.12 in 10.0 mi Calm Calm - N/A   Clear
4:51 PM 63.0 °F - 25.0 °F 24% 30.09 in 10.0 mi Variable 3.5 mph - N/A   Clear
5:51 PM 63.0 °F - 28.0 °F 27% 30.07 in 10.0 mi North 4.6 mph - N/A   Clear
6:51 PM 53.1 °F - 34.0 °F 48% 30.09 in 10.0 mi NNW 5.8 mph - N/A   Clear
7:51 PM 48.0 °F - 30.0 °F 50% 30.09 in 10.0 mi North 4.6 mph - N/A   Clear
8:51 PM 46.0 °F 43.1 °F 32.0 °F 58% 30.09 in 10.0 mi ENE 5.8 mph - N/A   Clear
9:51 PM 41.0 °F 36.4 °F 34.0 °F 76% 30.09 in 10.0 mi SSW 6.9 mph - N/A   Clear
10:51 PM 39.9 °F - 32.0 °F 73% 30.07 in 10.0 mi Calm Calm - N/A   Clear
11:51 PM 37.0 °F - 30.0 °F 76% 30.05 in 10.0 mi Calm Calm - N/A   Clear